User: anonymous   Login
Location: Unspecified
(0.0000°N, 0.0000°E)
Time: 06:49:28
(UTC+00:00)
Language:

AIST 2 - Orbit

View from above orbital plane
View from above orbital plane
View from above satellite
View from above satellite

Ground track
Ground track

The orbit data is extracted from the following two-line orbital elements,

1 39133U 13015D   19082.81950597  .00000170  00000-0  24357-4 0  9996
2 39133  64.8744  47.6414 0010827 324.7375 114.4454 15.04699541325286
Epoch (UTC): 23 March 2019 19:40:05
Eccentricity: 0.0010827
inclination: 64.8744°
perigee height: 545 km
apogee height: 560 km
right ascension of ascending node: 47.6414°
argument of perigee: 324.7375°
revolutions per day: 15.04699541
mean anomaly at epoch: 114.4454°
orbit number at epoch: 32528

The dashed part of the orbit path shows where the satellite is in the earth's shadow,  

DLR